Regional Weather Roundup
Issued by NWS

Home | Current Version | Previous Version | Graphics & Text | Print | Product List | Glossary Off
Versions: 1 2 3 4 5 6 7 8 9 10 11 12 13 14 15 16 17 18 19 20 21 22 23 24 25 26 27 28 29 30 31 32 33 34 35 36 37 38 39 40 41 42 43 44 45 46 47 48 49 50

000
ASUS45 KSLC 051610
RWRUT

UTAH REGIONAL WEATHER ROUNDUP
NATIONAL WEATHER SERVICE SALT LAKE CITY UT
1000 AM MDT SAT SEP 05 2015

UTZ001>011-023>025-051700-

NORTHERN UTAH

CITY           SKY/WX    TMP DP  RH WIND       PRES   REMARKS
BRIGHAM CITY   MOSUNNY   63  33  32 N17       29.92R
HILL AFB       MOSUNNY   68  40  35 W12       29.92S
LOGAN          MOSUNNY   60  41  49 N6        29.93R
OGDEN          MOSUNNY   67  43  41 W6        29.91R
PROVO AIRPORT  MOSUNNY   73  43  33 SE9       29.95F
SALT LAKE CITY PTSUNNY   78  38  23 S26G38    29.88F
VERNAL         SUNNY     65  53  65 SE6       30.04F
WENDOVER       SUNNY     64  27  24 N10       29.96R
HEBER CITY     CLOUDY    72  34  25 SW15      29.98F
WEST JORDAN    MOSUNNY   73  39  29 S29G37    29.93R

$$

UTZ012>022-026-027-051700-

SOUTHERN/CENTRAL UTAH

CITY           SKY/WX    TMP DP  RH WIND       PRES   REMARKS
BLANDING       CLOUDY    63  56  80 SE6       30.25R
BRYCE CANYON   CLOUDY    61  46  57 S10G20    30.20S
CEDAR CITY     MOSUNNY   69  45  41 S25G32    30.05R
DELTA          MOSUNNY   72  42  34 S18G30    29.98S
HANKSVILLE     SUNNY     77  45  31 S20       30.04R
MILFORD        PTSUNNY   71  48  43 SW20      29.99R
MOAB/CYNLANDS  SUNNY     74  53  48 SE13      30.03S
PRICE          SUNNY     66  48  52 SE8       30.08S
ST GEORGE      MOSUNNY   81  50  34 S10       29.94F
KANAB          SUNNY     72  55  56 CALM      30.13S

$$

REGIONAL REPORTS     COLORADO/ARIZONA

CITY           SKY/WX    TMP DP  RH WIND       PRES   REMARKS
CRAIG, CO      SUNNY     71  45  39 SW17G23   30.10F
GRAND JUNCTION SUNNY     66  54  65 SE20      30.07S
RIFLE          SUNNY     63  53  70 CALM      30.12F
MONTROSE       PTSUNNY   59  53  80 CALM      30.18S
CORTEZ         PTSUNNY   64  57  78 CALM      30.19R
PAGE, AZ       SUNNY     75  53  46 CALM      30.04S
GRAND CANYON   MOSUNNY   64  53  67 S15       30.21R
KINGMAN        SUNNY     80  46  30 SW17      29.99S
FLAGSTAFF      CLOUDY    59  55  87 SW7       30.25R

$$

REGIONAL REPORTS    NEVADA/IDAHO/WYOMING

CITY           SKY/WX    TMP DP  RH WIND       PRES   REMARKS
LAS VEGAS, NV  MOSUNNY   79  35  20 S10       29.86R
ELY            SUNNY     65  24  21 SW18G26   30.02R
ELKO           SUNNY     55  27  34 MISG      30.04R
POCATELLO, ID  MOSUNNY   53  36  52 SW18G24   30.02R
BURLEY         CLOUDY    49  36  61 W12G20    30.03R
EVANSTON, WY   MOSUNNY   66  33  29 S35G48    30.02S
ROCK SPRINGS   SUNNY     64  45  49 S25G33    30.05R
KEMMERER       MOSUNNY   63  32  31 S20G26    30.05S

$$


USA.gov is the U.S. government's official web portal to all federal, state and local government web resources and services.